COSMOS 1261 DEB, 27796

Orbit data source: Space-Track

COSMOS 1261 DEB, 27796 is space debris in HEO originally from a launch on Tue, 31 Mar 1981 UTC launched from the Plesetsk Missile And Space Complex (PKMTR). Debris objects in space refer to the collection of defunct objects orbiting the Earth. Examples of debris include non-operational satellites, rocket bodies, and fragments generated from explosions, collisions, or faulty payload assembly.

Loading next visibility...
Identifier
27796, 1981-031H
Orbit
HEO
Country
Flag of CISCIS
Related business
Manufacturer
Unknown
Mission
Spacecraft
Bus & Motor
Unknown
Mass
Unknown
Launch date (UTC)
1981-03-31 (45 years ago)
Launch vehicle
Unknown
Launch site
Plesetsk Missile And Space Complex (PKMTR)
Object type
Payload
Rocket body
Debris
Shape & HBR
Unknown shape, 0.5 m
Radar Cross Section
Medium (>0.1 m² and <1 m²)

Expand to show TLE details & history
Last TLE update: 23 hours ago

TLE from 23 hours ago
0 COSMOS 1261 DEB
1 27796U 81031H   25295.51144622 -.00000111  00000-0  00000-0 0  9996
2 27796  65.5279  20.3243 6934693  20.1784 357.3210  2.01726655181075
Epoch: 2025-10-22T12:16Z
TLE epoch observation values (Epoch: 2025-10-22T12:16:28.953Z)
Latitude
0.00025°
Longitude
165.05321°
Altitude
1,909.937 km
Speed
9.007 km/s
True Right ascension
01h 21m 25s
True Declination
0° 00' 01"
Sunlit
Object was in full shadow at epoch
Visualization orbit readout
Latitude
Unknown
Longitude
Unknown
Altitude
Unknown
Speed
Unknown
Apparent Right ascension
Unknown
Apparent Declination
Unknown
Sunlit
N/A
Visualization observer readout
Local Sidereal Time
06:34:19
Azimuth
Unknown
Elevation
Unknown
Doppler factor
Unknown
Orbital elements
Apogee altitude
38,426.145 km
Perigee altitude
1,731.776 km
Semi-major axis
26,457.097 km
Eccentricity
0.69347
Inclination
65.5279°
RAAN
20.3243°
Arg. of periapsis
20.1784°
True anomaly
339.80585°
Mean anomaly
357.321°
Eccentric anomaly
351.3349°
Mean motion
0.50435 °/min
Orbital period
713.79 mins
BSTAR
0
Loading maneuver chart data...
Computing Atmospheric mass density...
Loading historical data...
Loading historical data...
Loading historical data...
Loading historical data...
Loading historical data...
Loading historical data...
Loading historical data...

Documentation

Showing up to 5 results
|